Погода в Печатниках

Россия / Смоленская область     55°37′59″N   33°23′05″E
темп.,
°C
ветер,
м/с
пор.,
м/с
влажн.,
%
обл.,
%
осадки,
мм/ч
давл.,
гПа
погр.,
м
23 июня, ср
ср2300:00+20ю311864 0.0 1019226
03:00+19ю25930 0.0 102085
06:00+21ю14864 0.0 1021108
09:00+27ююв246367 0.0 1020503
12:00+31ююв35445 0.0 10201467
15:00+32ююв34331 0.0 10202352
18:00+31ю23425 0.0 10191859
21:00+24ююв227439 0.0 102031
24 июня, чт
чт2400:00+21ю247383 0.0 102072
03:00+20ююз22785 0.0 102138
06:00+21ююв24845 0.0 1020109
09:00+27ююз24655 0.0 1020538
12:00+31ю234671 0.0 10191855
15:00+33ю333628 0.0 10182774
18:00+31ю464349 0.0 10161090
21:00+23в127978 0.1 101733
25 июня, пт
пт2500:00+20ююз249592 1.4 101873
03:00+19в2498100 1.9 101899
06:00+20юв259534 0.0 1016108
09:00+26ю356916 0.0 1016423
12:00+31ююз354358 0.0 10161999
15:00+32ююз354170 0.0 10152202
18:00+26вюв3469100 0.4 1014130
21:00+18ююв5129595 5.1 1015326
26 июня, сб
сб2600:00+18ю31198100 0.3 1015285
03:00+17ю38979 1.0 1014178
06:00+18ююз26965 0.3 1014191
09:00+24ююв34665 0.3 1014367
12:00+29ю345273 0.0 1013999
15:00+31ююз344291 0.0 10122325
18:00+23ссз2284100 4.5 101152
21:00+19вюв228598 9.9 101321
27 июня, вс
вс2700:00+18юв2496100 1.1 101375
03:00+18ююв279878 3.9 1013174
06:00+19юв12955 0.0 101269
09:00+24ю23635 0.0 1012379
12:00+29ю245064 0.0 10121202
15:00+31ю46447 0.0 10122159
18:00+20вюв61191100 2.6 1012406
21:00+18ю259880 7.9 1012133